TimeEDT,TemperatureF,Dew PointF,Humidity,Sea Level PressureIn,VisibilityMPH,Wind Direction,Wind SpeedMPH,Gust SpeedMPH,PrecipitationIn,Events,Conditions,WindDirDegrees,DateUTC
12:08 AM,48.2,44.6,87,29.89,5.0,NNW,11.5,-,0.01,Rain,Rain,330,2012-10-10 04:08:00
12:29 AM,46.4,42.8,87,29.90,4.0,NW,13.8,21.9,0.09,Rain,Heavy Rain,320,2012-10-10 04:29:00
12:36 AM,46.4,42.8,87,29.90,4.0,NNW,11.5,-,0.12,Rain,Heavy Rain,330,2012-10-10 04:36:00
12:54 AM,46.0,43.0,89,29.91,7.0,NW,10.4,-,0.16,Rain,Rain,320,2012-10-10 04:54:00
1:06 AM,46.4,42.8,87,29.90,8.0,NNW,10.4,-,0.02,Rain,Light Rain,330,2012-10-10 05:06:00
1:13 AM,46.4,42.8,87,29.90,8.0,NW,9.2,-,0.02,Rain,Light Rain,320,2012-10-10 05:13:00
1:54 AM,45.0,42.1,90,29.91,6.0,NW,10.4,-,0.09,Rain,Rain,310,2012-10-10 05:54:00
2:54 AM,44.1,41.0,89,29.91,10.0,WNW,9.2,-,0.03,Rain,Light Rain,290,2012-10-10 06:54:00
3:54 AM,43.0,39.0,86,29.91,10.0,West,5.8,-,0.05,Rain,Light Rain,280,2012-10-10 07:54:00
4:28 AM,42.8,39.2,87,29.91,10.0,SW,5.8,-,0.00,,Overcast,230,2012-10-10 08:28:00
4:54 AM,43.0,39.9,89,29.92,10.0,SW,8.1,-,0.00,,Overcast,230,2012-10-10 08:54:00
5:09 AM,42.8,39.2,87,29.91,10.0,WSW,10.4,-,N/A,,Overcast,240,2012-10-10 09:09:00
5:54 AM,42.1,39.0,89,29.92,10.0,WSW,10.4,-,N/A,,Mostly Cloudy,240,2012-10-10 09:54:00
6:54 AM,42.1,39.9,92,29.94,8.0,WSW,9.2,-,N/A,,Overcast,240,2012-10-10 10:54:00
7:54 AM,41.0,39.0,93,29.96,7.0,SW,10.4,-,N/A,,Mostly Cloudy,230,2012-10-10 11:54:00
8:54 AM,41.0,37.9,89,29.99,7.0,WSW,10.4,-,N/A,,Mostly Cloudy,250,2012-10-10 12:54:00
9:54 AM,46.0,39.9,79,30.02,10.0,WSW,15.0,21.9,N/A,,Mostly Cloudy,250,2012-10-10 13:54:00
10:43 AM,44.6,37.4,76,30.03,10.0,West,13.8,-,N/A,,Overcast,270,2012-10-10 14:43:00
10:54 AM,45.0,37.0,74,30.04,10.0,West,12.7,-,N/A,,Overcast,270,2012-10-10 14:54:00
10:58 AM,44.6,37.4,76,30.04,10.0,West,15.0,-,N/A,,Overcast,270,2012-10-10 14:58:00
11:54 AM,45.0,34.0,65,30.07,10.0,WNW,18.4,-,N/A,,Overcast,290,2012-10-10 15:54:00
12:01 PM,44.6,33.8,66,30.06,10.0,WNW,19.6,25.3,N/A,,Overcast,290,2012-10-10 16:01:00
12:54 PM,44.1,28.9,55,30.10,10.0,WNW,20.7,28.8,N/A,,Overcast,290,2012-10-10 16:54:00
1:54 PM,46.0,30.0,54,30.10,10.0,WNW,20.7,26.5,N/A,,Overcast,290,2012-10-10 17:54:00
2:54 PM,48.0,26.1,42,30.10,10.0,WNW,17.3,28.8,N/A,,Mostly Cloudy,300,2012-10-10 18:54:00
3:54 PM,50.0,28.0,43,30.13,10.0,West,20.7,31.1,N/A,,Mostly Cloudy,280,2012-10-10 19:54:00
4:54 PM,48.0,27.0,44,30.13,10.0,WNW,21.9,32.2,N/A,,Mostly Cloudy,290,2012-10-10 20:54:00
5:54 PM,46.9,27.0,46,30.13,10.0,WNW,11.5,-,N/A,,Mostly Cloudy,290,2012-10-10 21:54:00
6:54 PM,46.0,28.0,50,30.15,10.0,West,8.1,-,N/A,,Overcast,280,2012-10-10 22:54:00
7:54 PM,41.0,28.0,60,30.17,10.0,West,6.9,-,N/A,,Partly Cloudy,260,2012-10-10 23:54:00
8:54 PM,41.0,28.9,62,30.19,10.0,WSW,4.6,-,N/A,,Partly Cloudy,240,2012-10-11 00:54:00
9:54 PM,39.0,28.9,67,30.19,10.0,WSW,3.5,-,N/A,,Scattered Clouds,240,2012-10-11 01:54:00
10:54 PM,37.0,28.0,70,30.20,10.0,SW,3.5,-,N/A,,Clear,230,2012-10-11 02:54:00
11:54 PM,37.0,28.0,70,30.21,10.0,SW,3.5,-,N/A,,Clear,230,2012-10-11 03:54:00